sat.trackr.live / text

‹ back to catalog

EOS-08

NORAD 60454 · 2024-147A

PAYLOAD ACTIVE UNKNOWN

§ Identity

Operator
Country
IND
Launch date
2024-08-16
Launch site
SRILR
Launch vehicle
Mass (kg)
RCS (m²)

External: N2YO · Heavens-Above · Gunter

§ Orbital elements

Epoch: 2026-09-22T22:40:43.228992Z

Period
92.58 min
Inclination
37.3802°
Eccentricity
0.0005787
Mean motion
15.55374432 rev/d
Perigee alt
397.1 km
Apogee alt
405.0 km
Semi-major
6,779.2 km
B*
5.5672e-4
RAAN
154.3643°
Arg perigee
325.3745°
Mean anomaly
34.6645°
Rev number
11,827

§ Raw data

EOS-081 60454U 24147A   26265.94494478  .00039089  00000+0  55672-3 0  99932 60454  37.3802 154.3643 0005787 325.3745  34.6645 15.55374432118272

JSON: /api/v1/satellites/60454 · /tle

For live sub-satellite position, see the globe view (requires WebGL).

§ Visibility from observer

Set your observer location to see the next 7 days of passes ≥ 10°. The values pass through the URL so the page stays shareable.

No JS? Fill the form by hand. The geolocation button needs JavaScript.